Regional Weather Roundup
Issued by NWS

Home | Current Version | Previous Version | Graphics & Text | Print | Product List | Glossary Off
Versions: 1 2 3 4 5 6 7 8 9 10 11 12 13 14 15 16 17 18 19 20 21 22 23 24 25 26 27 28 29 30 31 32 33 34 35 36 37 38 39 40 41 42 43 44 45 46 47 48 49 50

000
ASUS43 KMKX 250011
RWRWI

WISCONSIN REGIONAL WEATHER ROUNDUP
NATIONAL WEATHER SERVICE MILWAUKEE/SULLIVAN WI
700 PM CDT FRI APR 24 2015

NOTE: "FAIR" INDICATES FEW OR NO CLOUDS BELOW 12,000 FEET WITH NO
SIGNIFICANT WEATHER AND/OR OBSTRUCTIONS TO VISIBILITY.

WIZ001-002-006>008-014>016-023>028-250100-
NORTHWEST WISCONSIN

CITY           SKY/WX    TMP DP  RH WIND       PRES   REMARKS
SUPERIOR ARPT  CLOUDY    36  31  83 NE14G25   29.92F WCI  27
6HR MIN TEMP:  35; 6HR MAX TEMP:  39;

ASHLAND        CLOUDY    39  30  70 NE10      29.96S WCI  32
6HR MIN TEMP:  39; 6HR MAX TEMP:  45;

HAYWARD        CLOUDY    40  33  76 E13G22    29.89S WCI  32
6HR MIN TEMP:  37; 6HR MAX TEMP:  41; 6HR PCP: TRACE;

SIREN          CLOUDY    47  27  44 E8        29.85S
6HR MIN TEMP:  47; 6HR MAX TEMP:  51;

CUMBERLAND     CLOUDY    45  27  49 E13       29.85R
RICE LAKE      CLOUDY    51  27  40 SE10      29.87R
6HR MIN TEMP:  50; 6HR MAX TEMP:  52;

CHETEK         CLOUDY    50  29  43 SE16      29.87R
6HR MIN TEMP:  50; 6HR MAX TEMP:  54;

LADYSMITH      CLOUDY    47  26  44 E10       29.90R
6HR MIN TEMP:  47; 6HR MAX TEMP:  52;

EAU CLAIRE     CLOUDY    50  28  42 SE12      29.86R
6HR MIN TEMP:  50; 6HR MAX TEMP:  58;

MENOMONIE      DRIZZLE   48  34  58 SE14      29.86S
6HR MIN TEMP:  48; 6HR MAX TEMP:  57;

NEW RICHMOND   LGT RAIN  47  35  62 SE13G18   29.84S
6HR MIN TEMP:  47; 6HR MAX TEMP:  52;

OSCEOLA        CLOUDY    49  37  63 SE9       29.85F
6HR MIN TEMP:  48; 6HR MAX TEMP:  52;

$$

WIZ003>005-009-010-017-018-250100-
NORTH CENTRAL WISCONSIN

CITY           SKY/WX    TMP DP  RH WIND       PRES   REMARKS
MANITOWISH WTR CLOUDY    40  32  74 CALM      29.94F
6HR MIN TEMP:  36; 6HR MAX TEMP:  46;

ARBOR VITAE    CLOUDY    42  31  66 E6        29.94R
6HR MIN TEMP:  39; 6HR MAX TEMP:  45;

WOODRUFF       CLOUDY    42  31  66 E6        29.94R
6HR MIN TEMP:  39; 6HR MAX TEMP:  45;

RHINELANDER    CLOUDY    45  24  43 E10       29.94R
6HR MIN TEMP:  44; 6HR MAX TEMP:  47; 6HR PCP: TRACE;

EAGLE RIVER    CLOUDY    44  23  43 CALM      29.94S
6HR MIN TEMP:  44; 6HR MAX TEMP:  49;

LAND O LAKES   CLOUDY    44  26  49 CALM      29.95R
6HR MIN TEMP:  44; 6HR MAX TEMP:  50;

PHILLIPS       CLOUDY    42  29  60 NE12      29.89F
6HR MIN TEMP:  42; 6HR MAX TEMP:  44;

TOMAHAWK       CLOUDY    46  23  41 E7        29.92S
6HR MIN TEMP:  46; 6HR MAX TEMP:  50;

MEDFORD        CLOUDY    51  25  36 SE5       29.88R
6HR MIN TEMP:  49; 6HR MAX TEMP:  54;

MERRILL        CLOUDY    50  23  34 E10       29.91R
6HR MIN TEMP:  49; 6HR MAX TEMP:  56;

$$

WIZ029-030-035-036-043>047-250100-
CENTRAL WISCONSIN

CITY           SKY/WX    TMP DP  RH WIND       PRES   REMARKS
WAUSAU         CLOUDY    50  25  37 E20       29.89R
6HR MIN TEMP:  50; 6HR MAX TEMP:  57;

MOSINEE        CLOUDY    52  21  30 SE13      29.91R
MARSHFIELD     CLOUDY    50  25  37 SE10      29.89R
6HR MIN TEMP:  50; 6HR MAX TEMP:  59; 6HR PCP: TRACE;

STEVENS POINT  CLOUDY    47  24  39 SE10      29.93S
6HR MIN TEMP:  47; 6HR MAX TEMP:  56;

WAUPACA        CLOUDY    49  20  32 E13       29.96R
6HR MIN TEMP:  49; 6HR MAX TEMP:  60;

WAUTOMA        LGT RAIN  45  37  76 SE12      29.94R
6HR MIN TEMP:  47; 6HR MAX TEMP:  60; 6HR PCP: TRACE;

WISC RAPIDS    CLOUDY    52  12  20 S8        29.91S
6HR MIN TEMP:  52; 6HR MAX TEMP:  60;

CAMP DOUGLAS   CLOUDY    43  43 100 E13       29.89F
6HR MIN TEMP:  43; 6HR MAX TEMP:  58; 6HR PCP:  0.07;

$$

WIZ011>013-019>022-031-037>040-048>050-250100-
NORTHEAST WISCONSIN

CITY           SKY/WX    TMP DP  RH WIND       PRES   REMARKS
ANTIGO         CLOUDY    46  26  46 E14       29.94R
SHAWANO        CLOUDY    47  25  42 E8        29.97S
6HR MIN TEMP:  47; 6HR MAX TEMP:  58;

OCONTO         CLOUDY    41  25  52 SE9       30.00R
6HR MIN TEMP:  41; 6HR MAX TEMP:  48;

STURGEON BAY   CLOUDY    37  23  56 E8        30.03S WCI  31
6HR MIN TEMP:  37; 6HR MAX TEMP:  45;

GREEN BAY      CLOUDY    46  19  34 E9        29.99R
6HR MIN TEMP:  46; 6HR MAX TEMP:  54;

MANITOWOC      CLOUDY    40  24  53 E7        30.00S
6HR MIN TEMP:  40; 6HR MAX TEMP:  45;

APPLETON       CLOUDY    45  12  26 E9        29.97R
CLINTONVILLE   CLOUDY    46  21  36 SE13      29.97R
OSHKOSH        CLOUDY    46  21  37 SE13      29.96R
6HR MIN TEMP:  46; 6HR MAX TEMP:  57;

$$

WIZ032>034-041-042-053>061-250100-
SOUTHWEST WISCONSIN

CITY           SKY/WX    TMP DP  RH WIND       PRES   REMARKS
LA CROSSE      CLOUDY    46  42  86 SE5       29.87R
6HR MIN TEMP:  46; 6HR MAX TEMP:  56; 6HR PCP:  0.07;

SPARTA         LGT RAIN  43  39  86 E8G16     29.87F
6HR MIN TEMP:  43; 6HR MAX TEMP:  57; 6HR PCP:  0.04;

VIROQUA        CLOUDY    41  41 100 E14G20    29.84F
6HR MIN TEMP:  41; 6HR MAX TEMP:  51; 6HR PCP:  0.14;

BOSCOBEL       CLOUDY    44  41  89 E9        29.88F
6HR MIN TEMP:  43; 6HR MAX TEMP:  53; 6HR PCP:  0.30;

PRAIRIE DU CHI CLOUDY    45  39  79 E12G20    29.84F
6HR MIN TEMP:  42; 6HR MAX TEMP:  46; 6HR PCP:  0.34;

PLATTEVILLE    CLOUDY    44  40  86 E15       29.86F
6HR MIN TEMP:  44; 6HR MAX TEMP:  50; 6HR PCP:  0.03;

$$

WIZ056-057-062-063-064-067-068-250100-
SOUTH CENTRAL WISCONSIN

CITY           SKY/WX    TMP DP  RH WIND       PRES   REMARKS
REEDSBURG      CLOUDY    42  39  91 E6        29.91F
6HR MIN TEMP:  42; 6HR MAX TEMP:  54; 6HR PCP:  0.10;

BARABOO/DELLS  CLOUDY    41  38  89 E7        29.92F
6HR MIN TEMP:  41; 6HR MAX TEMP:  55; 6HR PCP:  0.07;

LONE ROCK      LGT RAIN  43  40  89 E8        29.91F
6HR MIN TEMP:  42; 6HR MAX TEMP:  53; 6HR PCP:  0.33;

MINERAL POINT  LGT RAIN  43  41  93 E10       29.88F
MADISON        LGT RAIN  43  37  79 E12       29.92F
6HR MIN TEMP:  43; 6HR MAX TEMP:  54; 6HR PCP:  0.21;

MIDDLETON      CLOUDY    43  38  83 E7        29.92S
6HR MIN TEMP:  43; 6HR MAX TEMP:  55; 6HR PCP:  0.25;

WATERTOWN      DRIZZLE   40  38  95 E9        29.95S WCI  34
6HR MIN TEMP:  40; 6HR MAX TEMP:  56;

MONROE         CLOUDY    43  37  81 NE10G16   29.90R
JANESVILLE     LGT RAIN  45  39  81 E12       29.90F FOG
$$

WIZ051-052-058>065-066-070>072-250100-
SOUTHEAST WISCONSIN

CITY           SKY/WX    TMP DP  RH WIND       PRES   REMARKS
MILWAUKEE      CLOUDY    39  32  76 E7        29.97F WCI  34
6HR MIN TEMP:  39; 6HR MAX TEMP:  48; 6HR PCP:  0.13;

WAUKESHA       CLOUDY    37  32  81 E7        29.98S WCI  32
MILWAUKEE/TIMM DRIZZLE   39  32  75 SE5       29.98F
RACINE         LGT RAIN  40  34  79 E5        29.99F
6HR MIN TEMP:  40; 6HR MAX TEMP:  49; 6HR PCP:  0.09;

BURLINGTON     MIX PCPN  39  34  82 E7        29.95F WCI  34
6HR MIN TEMP:  39; 6HR MAX TEMP:  56; 6HR PCP:  0.03;

KENOSHA        RAIN      40  35  83 E12       29.97F WCI  33
6HR MIN TEMP:  40; 6HR MAX TEMP:  52; 6HR PCP:  0.09;

FOND DU LAC    CLOUDY    45  25  45 S14       29.96S
6HR MIN TEMP:  45; 6HR MAX TEMP:  57; 6HR PCP: TRACE;

SHEBOYGAN      CLOUDY    39  26  59 E7        30.00R WCI  34
6HR MIN TEMP:  39; 6HR MAX TEMP:  49;

WEST BEND      LGT RAIN  37  32  81 E3        29.97F
JUNEAU         RAIN      39  35  85 E10       29.97R WCI  32
6HR MIN TEMP:  39; 6HR MAX TEMP:  56; 6HR PCP:  0.05;

$$

LSZ147-162-250100-
LAKE SUPERIOR

STATION/POSITION TIME  TEMP    WIND        PRES    WAVE
                       AIR SEA DIR/SP/G            HT/PER
                 (UTC) (F)     (DEG/KT/KT) (MB)    (FT/S)
W MID LAKE BUOY  2350   35 34   60/ 17/ 21 1016.9R   4/ 5
DEVILS ISLAND    0000   35      70/ 12/ 13 1016.4S
PORT WING        2300   44      80/  6/  9 1014.2F
SAXON HARBOR     2340   38        CALM     1014.6S
$$

LMZ867-665-643>646-250100-
LAKE MICHIGAN

STATION/POSITION TIME  TEMP    WIND        PRES    WAVE


USA.gov is the U.S. government's official web portal to all federal, state and local government web resources and services.